Weather History for Rochester, NH

Change the Weather History Date:

Saturday, October 6, 2012

  Actual Average (KSFM) Record (KSFM)
Temperature  
Mean Temperature 64 °F -  
Max Temperature 75 °F 60 °F 80 °F (1997)
Min Temperature 51 °F 37 °F 23 °F (1996)
Degree Days  
Heating Degree Days 2    
Growing Degree Days 14 (Base 50)    
Moisture  
Dew Point 55 °F    
Average Humidity 84    
Maximum Humidity 100    
Minimum Humidity 55    
Precipitation  
Precipitation 0.19 in - - ()
Sea Level Pressure  
Sea Level Pressure 29.78 in    
Wind  
Wind Speed 2 mph (SW)    
Max Wind Speed 16 mph    
Max Gust Speed 25 mph    
Visibility 6 miles    
Events Rain    
Averages and records for this station are not official NWS values.
T = Trace of Precipitation, MM = Missing Value Source: NWS Daily Summary

Daily Weather History Graph

Daily Weather History Graph

Search for Another Location

Airport:

Trip Planner

Search our weather history database for the weather conditions in past years. The results will help you decide how hot, cold, wet, or windy it might be!

Date:

Astronomy

Oct. 06, 2012 Rise Set
Actual Time 6:47 AM EDT 6:15 PM EDT
Civil Twilight 6:18 AM EDT 6:43 PM EDT
Nautical Twilight 5:45 AM EDT 7:16 PM EDT
Astronomical Twilight 5:12 AM EDT 7:49 PM EDT
Moon 10:20 PM EDT (10/6) 12:47 PM EDT (10/6)
Length of Visible Light 12h 24m
Length of Day
11h 27m
Waning Gibbous, 65% of the Moon is Illuminated
Oct 6
Waning Gibbous
Oct 8
Last Quarter
Oct 15
New
Oct 21
First Quarter
Oct 29
Full

Hourly Weather History & Observations

Time (EDT) Temp. Dew Point Humidity Pressure Visibility Wind Dir Wind Speed Gust Speed Precip Events Conditions
12:51 AM 57.9 °F 55.9 °F 93% 29.88 in 5.0 mi Calm Calm - N/A   Clear
1:51 AM 57.0 °F 55.9 °F 96% 29.86 in 4.0 mi South 3.5 mph - N/A   Partly Cloudy
3:47 AM 55.4 °F 53.6 °F 94% 29.84 in 2.0 mi Calm Calm - 0.01 in   Clear
3:51 AM 55.9 °F 54.0 °F 93% 29.83 in 2.5 mi Calm Calm - 0.01 in   Clear
4:00 AM 55.4 °F 55.4 °F 100% 29.84 in 4.0 mi South 3.5 mph - N/A   Clear
4:51 AM 55.9 °F 55.0 °F 97% 29.83 in 6.0 mi South 3.5 mph - N/A   Clear
5:51 AM 55.9 °F 54.0 °F 93% 29.81 in 4.0 mi Calm Calm - N/A   Clear
6:02 AM 55.4 °F 53.6 °F 94% 29.82 in 2.0 mi Calm Calm - N/A   Clear
6:16 AM 55.4 °F 53.6 °F 94% 29.82 in 3.0 mi Calm Calm - N/A   Clear
6:51 AM 55.0 °F 54.0 °F 96% 29.81 in 3.0 mi Calm Calm - N/A   Clear
7:04 AM 55.4 °F 53.6 °F 94% 29.81 in 2.5 mi Calm Calm - N/A   Clear
7:38 AM 55.4 °F 53.6 °F 94% 29.81 in 3.0 mi Calm Calm - N/A   Clear
7:51 AM 57.0 °F 55.0 °F 93% 29.80 in 4.0 mi Calm Calm - N/A   Clear
8:51 AM 60.1 °F 57.0 °F 90% 29.79 in 7.0 mi Calm Calm - N/A   Clear
9:51 AM 66.0 °F 59.0 °F 78% 29.79 in 10.0 mi Variable 4.6 mph - N/A   Clear
10:51 AM 69.1 °F 59.0 °F 70% 29.77 in 10.0 mi Variable 3.5 mph - N/A   Clear
11:51 AM 73.9 °F 57.0 °F 55% 29.73 in 10.0 mi SSW 9.2 mph 18.4 mph N/A   Clear
12:51 PM 73.9 °F 57.0 °F 55% 29.71 in 10.0 mi Variable 6.9 mph 18.4 mph N/A   Clear
1:51 PM 73.9 °F 57.0 °F 55% 29.67 in 10.0 mi Variable 6.9 mph 18.4 mph N/A   Clear
2:51 PM 75.0 °F 57.9 °F 55% 29.66 in 10.0 mi Variable 6.9 mph - N/A   Clear
4:26 PM 66.2 °F 60.8 °F 83% 29.68 in 1.8 mi Variable 4.6 mph 17.3 mph 0.04 in Rain Heavy Rain
4:51 PM 64.0 °F 62.1 °F 93% 29.68 in 1.5 mi Variable 4.6 mph - 0.18 in Rain Rain
5:04 PM 64.4 °F 62.6 °F 94% 29.69 in 3.0 mi Variable 5.8 mph - 0.02 in Rain Light Rain
5:18 PM 64.4 °F 62.6 °F 94% 29.70 in 1.8 mi West 3.5 mph - 0.06 in Rain Rain
5:28 PM 64.4 °F 60.8 °F 88% 29.71 in 3.0 mi WNW 16.1 mph 25.3 mph 0.07 in Rain Light Rain
7:51 PM 57.0 °F 52.0 °F 83% 29.79 in 10.0 mi West 3.5 mph - 0.00 in   Mostly Cloudy
8:51 PM 54.0 °F 48.9 °F 83% 29.82 in 10.0 mi WSW 3.5 mph - N/A   Clear
9:51 PM 53.1 °F 46.9 °F 80% 29.85 in 10.0 mi Calm Calm - N/A   Clear
10:51 PM 52.0 °F 44.1 °F 74% 29.87 in 10.0 mi Calm Calm - N/A   Clear
11:51 PM 51.1 °F 41.0 °F 68% 29.88 in 10.0 mi West 3.5 mph - N/A   Clear